Charlotte, NC

10:42 AM EDT on May 25, 2017 (GMT -0400)
Charlotte-Douglas International

Weather History for KCLT - May, 2013

Change the Weather History Date:

Friday, May 10, 2013

  Actual Average Record
Temperature  
Mean Temperature 70 °F 66 °F  
Max Temperature 83 °F 78 °F 94 °F (1889)
Min Temperature 57 °F 54 °F 38 °F (1906)
Degree Days  
Heating Degree Days 0 2  
Month to date heating degree days 43 27  
Since 1 July heating degree days 3190 3359  
Cooling Degree Days 5 3  
Month to date cooling degree days 7 23  
Year to date cooling degree days 50 60  
Growing Degree Days 20 (Base 50)    
Moisture  
Dew Point 58 °F    
Average Humidity 67    
Maximum Humidity 90    
Minimum Humidity 43    
Precipitation  
Precipitation 0.00 in 0.10 in 0.86 in (1961)
Month to date precipitation 2.24 0.98  
Year to date precipitation 17.99 14.76  
Snow  
Snow 0.00 in 0.00 in 0.00 in ()
Month to date snowfall 0.0 0.0  
Since 1 July snowfall 2.7 4.3  
Snow Depth 0.00 in    
Sea Level Pressure  
Sea Level Pressure 30.02 in    
Wind  
Wind Speed 5 mph (SW)    
Max Wind Speed 17 mph    
Max Gust Speed 25 mph    
Visibility 10 miles    
Events      
T = Trace of Precipitation, MM = Missing Value Source: NWS Daily Summary

Daily Weather History Graph

Daily Weather History Graph

Search for Another Location

Airport or City:

Trip Planner

Search our weather history database for the weather conditions in past years. The results will help you decide how hot, cold, wet, or windy it might be!

Date:

Astronomy

May. 10, 2013 Rise Set
Actual Time 6:23 AM EDT 8:17 PM EDT
Civil Twilight 5:55 AM EDT 8:45 PM EDT
Nautical Twilight 5:22 AM EDT 9:18 PM EDT
Astronomical Twilight 4:46 AM EDT 9:54 PM EDT
Moon 6:47 AM EDT (5/10) 9:04 PM EDT (5/10)
Length of Visible Light 14h 49m
Length of Day
13h 53m
New Moon, 0% of the Moon is Illuminated
May 10
New Moon
May 18
First Quarter
May 25
Full
May 31
Last Quarter
Jun 8
New

Hourly Weather History & Observations

Time (EDT) Temp. Heat Index Dew Point Humidity Pressure Visibility Wind Dir Wind Speed Gust Speed Precip Events Conditions
12:52 AM 64.4 °F - 55.4 °F 73% 30.09 in 10.0 mi Calm Calm - N/A   Clear
1:52 AM 63.0 °F - 55.9 °F 78% 30.06 in 10.0 mi Calm Calm - N/A   Partly Cloudy
2:52 AM 62.1 °F - 55.9 °F 80% 30.06 in 10.0 mi Calm Calm - N/A   Partly Cloudy
3:52 AM 60.8 °F - 55.4 °F 82% 30.07 in 10.0 mi Calm Calm - N/A   Partly Cloudy
4:52 AM 59.0 °F - 55.9 °F 90% 30.04 in 10.0 mi Calm Calm - N/A   Clear
5:52 AM 59.0 °F - 55.9 °F 90% 30.04 in 10.0 mi Calm Calm - N/A   Partly Cloudy
6:52 AM 60.1 °F - 55.9 °F 86% 30.05 in 10.0 mi Calm Calm - N/A   Mostly Cloudy
7:52 AM 63.0 °F - 59.0 °F 87% 30.05 in 10.0 mi Calm Calm - N/A   Mostly Cloudy
8:52 AM 66.9 °F - 59.0 °F 76% 30.05 in 10.0 mi Calm Calm - N/A   Clear
9:52 AM 72.0 °F - 61.0 °F 68% 30.06 in 10.0 mi Calm Calm - N/A   Clear
10:52 AM 77.0 °F - 60.1 °F 56% 30.05 in 10.0 mi SW 8.1 mph - N/A   Scattered Clouds
11:52 AM 79.0 °F - 61.0 °F 54% 30.05 in 10.0 mi SSW 9.2 mph - N/A   Scattered Clouds
12:52 PM 81.0 °F 81.1 °F 57.9 °F 45% 30.04 in 10.0 mi SW 12.7 mph 20.7 mph N/A   Mostly Cloudy
1:52 PM 82.0 °F 82.0 °F 57.9 °F 44% 30.03 in 10.0 mi SW 11.5 mph 21.9 mph N/A   Mostly Cloudy
2:52 PM 82.9 °F 82.8 °F 59.0 °F 44% 30.01 in 10.0 mi SW 12.7 mph 20.7 mph N/A   Mostly Cloudy
3:52 PM 81.0 °F 81.1 °F 57.9 °F 45% 29.99 in 10.0 mi West 10.4 mph 18.4 mph N/A   Mostly Cloudy
4:52 PM 81.0 °F 81.1 °F 57.9 °F 45% 29.97 in 10.0 mi SW 13.8 mph - N/A   Mostly Cloudy
5:52 PM 79.0 °F - 59.0 °F 50% 29.97 in 10.0 mi SW 10.4 mph - N/A   Mostly Cloudy
6:52 PM 77.0 °F - 59.0 °F 54% 29.96 in 10.0 mi SSW 5.8 mph - N/A   Overcast
7:52 PM 75.0 °F - 60.1 °F 60% 29.96 in 10.0 mi South 5.8 mph - N/A   Overcast
8:52 PM 73.9 °F - 60.1 °F 62% 29.96 in 10.0 mi SSW 4.6 mph - N/A   Overcast
9:52 PM 72.0 °F - 61.0 °F 68% 29.96 in 10.0 mi South 3.5 mph - N/A   Overcast
10:52 PM 70.0 °F - 61.0 °F 73% 29.97 in 10.0 mi SW 4.6 mph - N/A   Overcast
11:52 PM 70.0 °F - 61.0 °F 73% 29.95 in 10.0 mi South 4.6 mph - N/A   Overcast